This demonstration page uses our WeatherBlox Daily Observations layout. Learn more.

Left ArrowRight Arrow

41.86663, -103.66717

Hourly Observations for February 9, 2018

Temp ( °F °C ) Dew Point ( °F °C ) Humidity (%) Winds ( mph kmh ) Pressure ( in mb ) Visibility ( mi km ) Precip ( " mm )
12:45 am 00:45 Cloudy 18 -7.8 12 -11.1 77 77 NNE 17 28 30.39 1029 9 14 0.00 0.00
12:53 am 00:53 Cloudy 16 -8.9 10 -12.2 77 77 NNE 20 31 30.19 1023 10 16 0.00 0.00
1:53 am 01:53 Cloudy 15 -9.4 8 -13.3 74 74 NNE 12 19 30.22 1023 10 16 0.00 0.00
2:53 am 02:53 Cloudy 14 -10 7 -13.9 73 73 NNE 10 17 30.22 1024 10 16 0.00 0.00
3:53 am 03:53 Cloudy 13 -10.6 6 -14.4 74 74 NNE 8 13 30.23 1024 10 16 0.00 0.00
4:53 am 04:53 Cloudy 13 -10.6 5 -15 70 70 NE 8 13 30.23 1024 10 16 0.00 0.00
5:53 am 05:53 Cloudy 12 -11.1 4 -15.6 70 70 NE 9 15 30.23 1024 10 16 0.00 0.00
6:53 am 06:53 Cloudy 12 -11.1 5 -15 73 73 E 9 15 30.26 1025 10 16 0.00 0.00
7:53 am 07:53 Cloudy with Light Snow 12 -11.1 5 -15 73 73 E 10 17 30.26 1025 6 10 0.00 0.03
8:53 am 08:53 Cloudy with Haze 13 -10.6 6 -14.4 74 74 ESE 12 19 30.25 1024 6 10 0.00 0.03
9:53 am 09:53 Cloudy with Light Snow 13 -10.6 7 -13.9 77 77 ESE 12 19 30.23 1024 4 6 0.00 0.03
10:19 am 10:19 Cloudy with Light Snow 13 -10.6 8 -13.3 81 81 ESE 15 24 30.42 1030 3 4 0.00 0.03
10:27 am 10:27 Cloudy with Light Snow 13 -10.6 8 -13.3 81 81 ESE 14 22 30.39 1029 3 5 0.00 0.03
10:53 am 10:53 Cloudy with Light Snow 13 -10.6 8 -13.3 81 81 ESE 13 20 30.25 1025 3 4 0.00 0.03
11:10 am 11:10 Cloudy with Light Snow 12 -11 9 -13 85 85 E 15 24 30.39 1029 2 3 0.00 0.00
11:53 am 11:53 Cloudy with Light Snow 13 -10.6 8 -13.3 81 81 E 13 20 30.23 1024 2 3 0.01 0.25
12:11 pm 12:11 Cloudy with Light Snow 14 -10 9 -12.8 80 80 E 14 22 30.36 1028 2 3 0.00 0.03
12:41 pm 12:41 Cloudy with Light Snow 14 -10 9 -12.8 80 80 E 15 24 30.36 1028 3 5 0.00 0.03
12:49 pm 12:49 Cloudy with Light Snow 16 -9 9 -13 73 73 E 14 22 30.33 1027 3 4 0.00 0.03
12:50 pm 12:50 Cloudy with Light Snow 15 -9.4 9 -12.8 77 77 E 13 20 30.22 1023 3 4 0.00 0.03
1:16 pm 13:16 Cloudy with Light Snow 14 -10 9 -12.8 80 80 ENE 13 20 30.36 1028 2 2 0.00 0.03
1:36 pm 13:36 Cloudy with Light Snow 16 -9 10 -12 79 79 ENE 14 22 30.33 1027 1 1 0.00 0.00
1:53 pm 13:53 Mostly Cloudy with Light Snow 15 -9.4 9 -12.8 77 77 NE 13 20 30.25 1025 1 2 0.00 0.03
2:04 pm 14:04 Cloudy with Light Snow 15 -9.4 8 -13.3 74 74 NE 16 26 30.33 1027 2 3 0.00 0.03
2:08 pm 14:08 Cloudy with Light Snow 16 -9 9 -13 73 73 NE 18 30 30.33 1027 3 5 0.00 0.00
2:53 pm 14:53 Cloudy 14 -10 6 -14.4 71 71 ENE 14 22 30.28 1025 9 14 0.00 0.03
3:53 pm 15:53 Cloudy 13 -10.6 5 -15 70 70 NE 10 17 30.29 1026 10 16 0.00 0.00
4:20 pm 16:20 Cloudy with Light Snow 12 -11.1 5 -15 73 73 NNE 10 17 30.45 1031 2 3 0.00 0.03
4:34 pm 16:34 Cloudy with Light Snow 10 -12 3 -16 72 72 NE 10 17 30.45 1031 4 6 0.00 0.00
4:50 pm 16:50 Cloudy with Light Snow 10 -12 3 -16 72 72 NNE 12 19 30.45 1031 3 4 0.00 0.00
4:53 pm 16:53 Cloudy with Light Snow 11 -11.7 4 -15.6 73 73 NE 10 17 30.32 1027 3 4 0.01 0.25
5:04 pm 17:04 Cloudy with Light Snow 11 -11.7 4 -15.6 73 73 NE 9 15 30.45 1031 2 3 0.00 0.03
5:07 pm 17:07 Cloudy with Light Snow 10 -12 3 -16 72 72 NE 8 13 30.45 1031 2 3 0.00 0.00
5:18 pm 17:18 Cloudy with Light Snow 10 -12.2 4 -15.6 76 76 NE 10 17 30.45 1031 4 6 0.00 0.03
5:53 pm 17:53 Cloudy 10 -12.2 3 -16.1 73 73 NE 7 11 30.36 1028 9 14 0.00 0.03
6:53 pm 18:53 Cloudy 9 -12.8 2 -16.7 73 73 NNE 9 15 30.40 1029 10 16 0.00 0.00
7:53 pm 19:53 Mostly Cloudy 6 -14.4 1 -17.2 79 79 NNE 9 15 30.42 1030 10 16 0.00 0.00
8:10 pm 20:10 Partly Cloudy 7 -14 0 -18 72 72 NE 6 9 30.56 1035 10 16 0.00 0.00
8:53 pm 20:53 Mostly Cloudy 6 -14.4 0 -17.8 76 76 NE 3 6 30.40 1029 10 16 0.00 0.00
9:53 pm 21:53 Mostly Cloudy 5 -15 -1 -18.3 76 76 ESE 5 7 30.41 1030 10 16 0.00 0.00
10:21 pm 22:21 Cloudy 5 -15 -1 -18.3 76 76 ENE 3 6 30.53 1034 9 14 0.00 0.00
10:39 pm 22:39 Partly Cloudy 4 -15.6 0 -17.8 83 83 SSE 5 7 30.56 1035 10 16 0.00 0.00
10:53 pm 22:53 Clear 4 -15.6 0 -17.8 83 83 ESE 3 6 30.38 1029 10 16 0.00 0.00
11:53 pm 23:53 Mostly Clear 4 -15.6 0 -17.8 83 83 ESE 6 9 30.37 1028 10 16 0.00 0.00

Powered by AerisWeather